Regional Weather Roundup
Issued by NWS

Home | Current Version | Previous Version | Graphics & Text | Print | Product List | Glossary Off
Versions: 1 2 3 4 5 6 7 8 9 10 11 12 13 14 15 16 17 18 19 20 21 22 23 24 25 26 27 28 29 30 31 32 33 34 35 36 37 38 39 40 41 42 43 44 45 46 47 48 49 50

000
ASUS43 KDMX 162007
RWRIA

WEATHER ROUNDUP FOR IOWA
NATIONAL WEATHER SERVICE DES MOINES IA
200 PM CST TUE DEC 16 2014

NOTE: "FAIR" INDICATES FEW OR NO CLOUDS BELOW 12,000 FEET WITH NO
SIGNIFICANT WEATHER AND/OR OBSTRUCTIONS TO VISIBILITY.

* - THESE STATIONS ARE NOT NWS STATIONS...THUS NOT UNDER NWS
QUALITY CONTROL.  THEY ALSO DO NOT REPORT WEATHER SUCH
AS PRECIPITATION OR FOG.

IAZ001>003-012>014-020>022-031>034-043>046-162100-
   NORTHWEST IOWA

CITY           SKY/WX    TMP DP  RH WIND       PRES   REMARKS
CARROLL *      CLOUDY    23  18  80 NW22G29   30.23R WCI   8
CHEROKEE *     PTSUNNY   21  18  86 NW14G22   30.26R WCI   8
DENISON *      MOSUNNY   25  18  74 NW20      30.24S WCI  11
LE MARS *      CLOUDY    21  16  79 NW16      30.29S WCI   7
ORANGE CITY *  MOSUNNY   19  12  73 NW20      30.25S WCI   4
SHELDON *      FLURRIES  18  14  86 NW18      30.24R WCI   2
SIOUX CITY     SUNNY     25  14  63 NW21G28   30.30R WCI  11
SPENCER        MIX PCPN  19  11  70 NW23      30.23R WCI   2
STORM LAKE *   PTSUNNY   21  16  79 NW21G29   30.22R WCI   6
$$

IAZ055>058-069>071-079>083-090>094-162100-
   SOUTHWEST IOWA

CITY           SKY/WX    TMP DP  RH WIND       PRES   REMARKS
ATLANTIC *     PTSUNNY   28  19  69 NW20G25   30.25R WCI  15
AUDUBON *      MOSUNNY   27  18  69 NW13G22   30.23R WCI  16
CLARINDA *     CLOUDY    28  21  74 NW16G24   30.28F WCI  17
COUNCIL BLFS * CLOUDY    27  21  80 NW18G28   30.25F WCI  13
CRESTON *      CLOUDY    27  21  80 NW20G28   30.22S WCI  13
HARLAN  *      MOSUNNY   28  21  74 NW23G30   30.28F WCI  14
LAMONI         CLOUDY    28  21  75 NW17      30.21S WCI  16
RED OAK *      PTSUNNY   30  21  69 NW17G25   30.28R WCI  18
SHENANDOAH *   CLOUDY    28  21  74 NW13G21   30.30S WCI  18
$$

IAZ047>049-059>061-072>074-084-162100-
   CENTRAL IOWA

CITY           SKY/WX    TMP DP  RH WIND       PRES   REMARKS
AMES           CLOUDY    23  15  71 NW22G28   30.19R WCI   8
ANKENY *       CLOUDY    25  18  74 NW21G26   30.19R WCI  10
CHARITON *     CLOUDY    27  21  80 NW20      30.19R WCI  13
DES MOINES     PTSUNNY   28  19  69 NW20      30.19R WCI  15
GRINNELL*      CLOUDY    21  18  86 NW23G30   30.15R WCI   5
KNOXVILLE *    PTSUNNY   27  18  69 NW21      30.17R WCI  13
MARSHALLTOWN   CLOUDY    21  16  81 NW20      30.15R WCI   6
PELLA *        CLOUDY    27  19  74 NW22G28   30.18S WCI  12
PERRY *        CLOUDY    27  21  80 NW15      30.21S WCI  15
$$

IAZ004>006-015-016-023>025-035-036-162100-
   NORTH CENTRAL IOWA

CITY           SKY/WX    TMP DP  RH WIND       PRES   REMARKS
ALGONA *       FLURRIES  18  10  73 NW21G28   30.20R WCI   1
CLARION *      FLURRIES  18  14  86 NW24G31   30.19R WCI   0
ESTHERVILLE    CLOUDY    15   8  73 NW23      30.21R WCI  -3
FORT DODGE *   CLOUDY    21  12  68 NW13G18   30.21R WCI   9
MASON CITY     LGT SNOW  18  12  77 NW21G30   30.16R WCI   1
FOREST CITY *  LGT SNOW  18  10  73 NW18G26   30.16R WCI   2
IOWA FALLS *   FLURRIES  19  14  79 NW24G30   30.17R WCI   2
$$

IAZ007>011-017>019-026>030-037>042-050>054-066-162100-
   NORTHEAST IOWA

CITY           SKY/WX    TMP DP  RH WIND       PRES   REMARKS
CEDAR RAPIDS   CLOUDY    26  22  84 NW22G31   30.06R WCI  12
CHARLES CITY * CLOUDY    23  19  86 NW17G24   30.11R WCI   9
CLINTON *      CLOUDY    32  27  80 NW22      30.02R WCI  19
DECORAH *      CLOUDY    25  21  86 NW16G24   30.03R WCI  12
DUBUQUE        CLOUDY    29  27  92 NW17G26   29.99R WCI  17
MONTICELLO *   CLOUDY    28  27  93 NW21G30   30.03R WCI  15
OELWEIN *      CLOUDY    25  23  93 NW23G30   30.07R WCI  10
WATERLOO       CLOUDY    23  18  81 NW20G28   30.11R WCI   8
$$

IAZ064-065-067-068-078-162100-
   EAST CENTRAL IOWA

CITY           SKY/WX    TMP DP  RH WIND       PRES   REMARKS
DAVENPORT      CLOUDY    31  25  78 NW17G32   30.02R WCI  19
IOWA CITY      CLOUDY    28  22  78 NW21G28   30.10R WCI  15
MT. PLEASANT * CLOUDY    28  23  80 W16G24    30.11R WCI  17
MUSCATINE *    CLOUDY    30  25  80 NW17G29   30.09R WCI  18
QUAD CITIES    CLOUDY    32  25  75 NW22G32   30.02R WCI  19
$$

IAZ062-063-075>077-085>089-095>099-162100-
   SOUTHEAST IOWA

CITY           SKY/WX    TMP DP  RH WIND       PRES   REMARKS
BURLINGTON     CLOUDY    30  24  78 NW17G23   30.09R WCI  18
FAIRFIELD *    MIX PCPN  27  21  80 W22G28    30.13R WCI  12
FORT MADISON * CLOUDY    30  27  86 W20       30.11R WCI  18
KEOKUK *       CLOUDY    30  27  86 NW13      30.11R WCI  20
OSKALOOSA *    CLOUDY    25  19  80 NW24G30   30.17R WCI   9
CENTERVILLE *  CLOUDY    28  23  80 W21G26    30.18R WCI  15
OTTUMWA        CLOUDY    25  19  78 NW20      30.16R WCI  11
WASHINGTON *   CLOUDY    28  27  93 W22G29    30.11R WCI  15
$$

ABBREVIATIONS USED IN REMARKS
   TC - TEMPERATURES IN CELSIUS
  WCI - WIND CHILL INDEX
   HX - HEAT INDEX
  VSB - VISIBILITY
$$




USA.gov is the U.S. government's official web portal to all federal, state and local government web resources and services.